| time (UTC) | temp C | wind direction | speed KPH | gust KPH | rain 1hr cm | rain 24hr cm | rain mn cm | humidity % | barometer mb |
| 20260906171821 | 36 | 250 | 1.6 | 12.9 | 0.00 | 0.00 | 0.00 | 46 | 1016.5 |
| 20260906171317 | 36 | 95 | 3.2 | 12.9 | 0.00 | 0.00 | 0.00 | 46 | 1016.7 |
| 20260906170832 | 35 | 94 | 1.6 | 4.8 | 0.00 | 0.00 | 0.00 | 48 | 1016.7 |
| 20260906170328 | 35 | 92 | 0.0 | 4.8 | 0.00 | 0.00 | 0.00 | 47 | 1016.7 |
| 20260906165823 | 35 | 123 | 3.2 | 4.8 | 0.00 | 0.00 | 0.00 | 51 | 1016.8 |
| 20260906165324 | 34 | 148 | 3.2 | 4.8 | 0.00 | 0.00 | 0.00 | 49 | 1016.9 |
| 20260906164820 | 35 | 88 | 1.6 | 4.8 | 0.00 | 0.00 | 0.00 | 47 | 1016.9 |
| 20260906164315 | 35 | 82 | 3.2 | 4.8 | 0.00 | 0.00 | 0.00 | 51 | 1017.0 |
| 20260906163812 | 35 | 143 | 1.6 | 6.4 | 0.00 | 0.00 | 0.00 | 49 | 1017.1 |
| 20260906163327 | 34 | 110 | 3.2 | 4.8 | 0.00 | 0.00 | 0.00 | 49 | 1017.0 |
| 20260906162823 | 34 | 70 | 0.0 | 9.7 | 0.00 | 0.00 | 0.00 | 50 | 1017.1 |
| 20260906162321 | 34 | 91 | 1.6 | 9.7 | 0.00 | 0.00 | 0.00 | 52 | 1017.1 |
| 20260906161821 | 34 | 80 | 0.0 | 3.2 | 0.00 | 0.00 | 0.00 | 50 | 1017.1 |
| 20260906161318 | 34 | 32 | 1.6 | 3.2 | 0.00 | 0.00 | 0.00 | 54 | 1017.1 |
| 20260906160813 | 33 | 18 | 0.0 | 6.4 | 0.00 | 0.00 | 0.00 | 55 | 1017.2 |
| 20260906160310 | 33 | 100 | 3.2 | 6.4 | 0.00 | 0.00 | 0.00 | 53 | 1017.2 |
| 20260906155826 | 33 | 150 | 3.2 | 4.8 | 0.00 | 0.00 | 0.00 | 52 | 1017.1 |
| 20260906155323 | 33 | 148 | 1.6 | 3.2 | 0.00 | 0.00 | 0.00 | 52 | 1017.1 |
| 20260906154819 | 32 | 122 | 1.6 | 4.8 | 0.00 | 0.00 | 0.00 | 56 | 1017.2 |
| 20260906154319 | 32 | 150 | 1.6 | 6.4 | 0.00 | 0.00 | 0.00 | 54 | 1017.1 |
| 20260906153815 | 32 | 142 | 1.6 | 4.8 | 0.00 | 0.00 | 0.00 | 57 | 1017.1 |
| 20260906153330 | 32 | 103 | 0.0 | 3.2 | 0.00 | 0.00 | 0.00 | 58 | 1017.1 |
| 20260906152846 | 32 | 123 | 1.6 | 3.2 | 0.00 | 0.00 | 0.00 | 54 | 1017.0 |
| 20260906152322 | 32 | 88 | 0.0 | 3.2 | 0.00 | 0.00 | 0.00 | 56 | 1017.0 |
| 20260906151818 | 32 | 151 | 0.0 | 3.2 | 0.00 | 0.00 | 0.00 | 56 | 1017.0 |
| 20260906151314 | 31 | 152 | 1.6 | 3.2 | 0.00 | 0.00 | 0.00 | 57 | 1016.9 |
| 20260906150811 | 31 | 165 | 1.6 | 3.2 | 0.00 | 0.00 | 0.00 | 57 | 1017.0 |
| 20260906150327 | 31 | 123 | 0.0 | 3.2 | 0.00 | 0.00 | 0.00 | 57 | 1017.0 |
| 20260906145827 | 31 | 123 | 0.0 | 3.2 | 0.00 | 0.00 | 0.00 | 57 | 1016.9 |
| 20260906145322 | 30 | 123 | 1.6 | 3.2 | 0.00 | 0.00 | 0.00 | 57 | 1016.9 |
| 20260906144819 | 30 | 252 | 0.0 | 3.2 | 0.00 | 0.00 | 0.00 | 61 | 1016.9 |
| 20260906144335 | 30 | 234 | 0.0 | 3.2 | 0.00 | 0.00 | 0.00 | 61 | 1016.9 |
| 20260906143829 | 30 | 234 | 1.6 | 3.2 | 0.00 | 0.00 | 0.00 | 61 | 1016.9 |
| 20260906143345 | 30 | 221 | 1.6 | 3.2 | 0.00 | 0.00 | 0.00 | 60 | 1016.9 |
| 20260906142840 | 29 | 219 | 1.6 | 3.2 | 0.00 | 0.00 | 0.00 | 61 | 1017.0 |
| 20260906142315 | 29 | 101 | 0.0 | 3.2 | 0.00 | 0.00 | 0.00 | 64 | 1016.9 |
| 20260906141811 | 29 | 101 | 0.0 | 3.2 | 0.00 | 0.00 | 0.00 | 65 | 1017.0 |
| 20260906141347 | 28 | 101 | 0.0 | 3.2 | 0.00 | 0.00 | 0.00 | 65 | 1017.0 |
| 20260906140843 | 28 | 101 | 1.6 | 4.8 | 0.00 | 0.00 | 0.00 | 66 | 1016.9 |
| 20260906140323 | 28 | 78 | 1.6 | 4.8 | 0.00 | 0.00 | 0.00 | 68 | 1016.9 |
| 20260906135817 | 27 | 107 | 1.6 | 3.2 | 0.00 | 0.00 | 0.00 | 69 | 1016.8 |
| 20260906135313 | 27 | 107 | 0.0 | 3.2 | 0.00 | 0.00 | 0.00 | 71 | 1016.8 |
| 20260906134849 | 27 | 107 | 0.0 | 3.2 | 0.00 | 0.00 | 0.00 | 73 | 1016.8 |
| 20260906134325 | 27 | 107 | 0.0 | 3.2 | 0.00 | 0.00 | 0.00 | 75 | 1016.7 |
| 20260906133821 | 26 | 107 | 1.6 | 3.2 | 0.00 | 0.00 | 0.00 | 75 | 1016.7 |
| 20260906133317 | 26 | 109 | 0.0 | 3.2 | 0.00 | 0.00 | 0.00 | 76 | 1016.8 |
| 20260906132834 | 25 | 109 | 1.6 | 3.2 | 0.00 | 0.00 | 0.00 | 77 | 1016.8 |
| 20260906132313 | 25 | 128 | 1.6 | 3.2 | 0.00 | 0.00 | 0.00 | 76 | 1016.7 |
| 20260906131809 | 25 | 128 | 0.0 | 3.2 | 0.00 | 0.00 | 0.00 | 77 | 1016.7 |
| 20260906131326 | 24 | 128 | 0.0 | 3.2 | 0.00 | 0.00 | 0.00 | 79 | 1016.6 |
| 20260906130843 | 23 | 128 | 0.0 | 3.2 | 0.00 | 0.00 | 0.00 | 84 | 1016.6 |
| 20260906130316 | 23 | 128 | 0.0 | 3.2 | 0.00 | 0.00 | 0.00 | 85 | 1016.6 |
| 20260906125811 | 23 | 128 | 0.0 | 3.2 | 0.00 | 0.00 | 0.00 | 86 | 1016.6 |
| 20260906125328 | 22 | 128 | 0.0 | 3.2 | 0.00 | 0.00 | 0.00 | 87 | 1016.6 |
| 20260906124825 | 22 | 128 | 0.0 | 1.6 | 0.00 | 0.00 | 0.00 | 87 | 1016.5 |
| 20260906124321 | 22 | 128 | 0.0 | 3.2 | 0.00 | 0.00 | 0.00 | 86 | 1016.5 |
| 20260906123327 | 21 | 128 | 0.0 | 0.0 | 0.00 | 0.00 | 0.00 | 89 | 1016.2 |
| 20260906122823 | 21 | 128 | 0.0 | 0.0 | 0.00 | 0.00 | 0.00 | 89 | 1016.1 |
| 20260906122319 | 21 | 128 | 0.0 | 0.0 | 0.00 | 0.00 | 0.00 | 89 | 1016.0 |
| 20260906121815 | 20 | 128 | 0.0 | 0.0 | 0.00 | 0.00 | 0.00 | 90 | 1016.0 |
| 20260906121316 | 20 | 128 | 0.0 | 0.0 | 0.00 | 0.00 | 0.00 | 90 | 1015.9 |
| 20260906120813 | 20 | 128 | 0.0 | 0.0 | 0.00 | 0.00 | 0.00 | 90 | 1015.9 |
| 20260906120309 | 20 | 128 | 0.0 | 0.0 | 0.00 | 0.00 | 0.00 | 90 | 1015.8 |
| 20260906115823 | 20 | 128 | 0.0 | 0.0 | 0.00 | 0.00 | 0.00 | 89 | 1015.7 |
| 20260906115318 | 20 | 128 | 0.0 | 0.0 | 0.00 | 0.00 | 0.00 | 90 | 1015.6 |
| 20260906114815 | 20 | 128 | 0.0 | 0.0 | 0.00 | 0.00 | 0.00 | 89 | 1015.6 |
| 20260906114310 | 20 | 128 | 0.0 | 0.0 | 0.00 | 0.00 | 0.00 | 89 | 1015.5 |
| 20260906113811 | 20 | 128 | 0.0 | 0.0 | 0.00 | 0.00 | 0.00 | 89 | 1015.4 |
| 20260906113327 | 20 | 128 | 0.0 | 0.0 | 0.00 | 0.00 | 0.00 | 89 | 1015.5 |
| 20260906112824 | 20 | 128 | 0.0 | 0.0 | 0.00 | 0.00 | 0.00 | 89 | 1015.4 |
| 20260906112320 | 20 | 128 | 0.0 | 0.0 | 0.00 | 0.00 | 0.00 | 89 | 1015.5 |
| 20260906111816 | 20 | 128 | 0.0 | 0.0 | 0.00 | 0.00 | 0.00 | 89 | 1015.5 |
| 20260906111311 | 20 | 128 | 0.0 | 0.0 | 0.00 | 0.00 | 0.00 | 89 | 1015.4 |
| 20260906110818 | 20 | 128 | 0.0 | 0.0 | 0.00 | 0.00 | 0.00 | 88 | 1015.4 |
| 20260905233313 | 34 | 26 | 0.0 | 4.8 | 0.00 | 0.00 | 0.00 | 46 | 1013.7 |
| 20260905232810 | 34 | 27 | 1.6 | 4.8 | 0.00 | 0.00 | 0.00 | 44 | 1013.6 |
| 20260905232328 | 34 | 15 | 1.6 | 8.0 | 0.00 | 0.00 | 0.00 | 45 | 1013.5 |
| 20260905231844 | 35 | 22 | 4.8 | 8.0 | 0.00 | 0.00 | 0.00 | 42 | 1013.5 |
| 20260905231320 | 36 | 11 | 3.2 | 8.0 | 0.00 | 0.00 | 0.00 | 45 | 1013.5 |
| 20260905230819 | 36 | 202 | 0.0 | 4.8 | 0.00 | 0.00 | 0.00 | 36 | 1013.4 |
| 20260905230315 | 36 | 232 | 1.6 | 4.8 | 0.00 | 0.00 | 0.00 | 37 | 1013.4 |
| 20260905225811 | 36 | 199 | 1.6 | 4.8 | 0.00 | 0.00 | 0.00 | 35 | 1013.4 |
| 20260905225328 | 36 | 120 | 1.6 | 4.8 | 0.00 | 0.00 | 0.00 | 37 | 1013.4 |
| 20260905224825 | 36 | 95 | 1.6 | 4.8 | 0.00 | 0.00 | 0.00 | 37 | 1013.3 |
| 20260905224322 | 36 | 82 | 0.0 | 3.2 | 0.00 | 0.00 | 0.00 | 37 | 1013.4 |
| 20260905223818 | 37 | 82 | 0.0 | 3.2 | 0.00 | 0.00 | 0.00 | 38 | 1013.4 |
| 20260905223318 | 37 | 118 | 0.0 | 4.8 | 0.00 | 0.00 | 0.00 | 36 | 1013.4 |
| 20260905222814 | 37 | 124 | 1.6 | 4.8 | 0.00 | 0.00 | 0.00 | 36 | 1013.3 |
| 20260905222311 | 37 | 143 | 0.0 | 3.2 | 0.00 | 0.00 | 0.00 | 36 | 1013.3 |
| 20260905221828 | 37 | 143 | 0.0 | 3.2 | 0.00 | 0.00 | 0.00 | 36 | 1013.4 |
| 20260905221324 | 37 | 142 | 0.0 | 4.8 | 0.00 | 0.00 | 0.00 | 35 | 1013.5 |
| 20260905220820 | 37 | 143 | 1.6 | 4.8 | 0.00 | 0.00 | 0.00 | 36 | 1013.4 |
| 20260905220316 | 37 | 148 | 1.6 | 3.2 | 0.00 | 0.00 | 0.00 | 34 | 1013.5 |
| 20260905215816 | 37 | 110 | 0.0 | 3.2 | 0.00 | 0.00 | 0.00 | 34 | 1013.6 |
| 20260905215312 | 37 | 123 | 1.6 | 4.8 | 0.00 | 0.00 | 0.00 | 36 | 1013.6 |
| 20260905214828 | 37 | 111 | 3.2 | 4.8 | 0.00 | 0.00 | 0.00 | 35 | 1013.6 |
| 20260905214324 | 37 | 111 | 1.6 | 4.8 | 0.00 | 0.00 | 0.00 | 36 | 1013.7 |
| 20260905213820 | 37 | 117 | 1.6 | 3.2 | 0.00 | 0.00 | 0.00 | 36 | 1013.7 |
| 20260905213316 | 37 | 300 | 0.0 | 4.8 | 0.00 | 0.00 | 0.00 | 37 | 1013.7 |
| 20260905212812 | 37 | 260 | 1.6 | 4.8 | 0.00 | 0.00 | 0.00 | 36 | 1013.7 |
| 20260905212350 | 37 | 262 | 1.6 | 4.8 | 0.00 | 0.00 | 0.00 | 41 | 1013.8 |
| 20260905211828 | 37 | 244 | 3.2 | 8.0 | 0.00 | 0.00 | 0.00 | 38 | 1013.8 |
| 20260905211325 | 36 | 235 | 3.2 | 8.0 | 0.00 | 0.00 | 0.00 | 37 | 1014.0 |
| 20260905210821 | 37 | 222 | 3.2 | 6.4 | 0.00 | 0.00 | 0.00 | 37 | 1014.1 |
| 20260905210317 | 37 | 272 | 1.6 | 6.4 | 0.00 | 0.00 | 0.00 | 36 | 1014.2 |
| 20260905205812 | 37 | 249 | 4.8 | 6.4 | 0.00 | 0.00 | 0.00 | 34 | 1014.3 |
| 20260905205328 | 37 | 271 | 1.6 | 4.8 | 0.00 | 0.00 | 0.00 | 36 | 1014.3 |
| 20260905204823 | 37 | 343 | 0.0 | 11.3 | 0.00 | 0.00 | 0.00 | 38 | 1014.3 |
| 20260905204323 | 37 | 254 | 1.6 | 11.3 | 0.00 | 0.00 | 0.00 | 38 | 1014.4 |
| 20260905203820 | 37 | 256 | 1.6 | 9.7 | 0.00 | 0.00 | 0.00 | 38 | 1014.5 |
| 20260905203337 | 37 | 250 | 6.4 | 9.7 | 0.00 | 0.00 | 0.00 | 36 | 1014.6 |
| 20260905202832 | 37 | 17 | 0.0 | 3.2 | 0.00 | 0.00 | 0.00 | 37 | 1014.7 |
| 20260905202326 | 37 | 24 | 0.0 | 3.2 | 0.00 | 0.00 | 0.00 | 39 | 1014.7 |
| 20260905201822 | 35 | 24 | 0.0 | 3.2 | 0.00 | 0.00 | 0.00 | 41 | 1014.7 |
| 20260905201319 | 36 | 24 | 0.0 | 4.8 | 0.00 | 0.00 | 0.00 | 42 | 1014.8 |
| 20260905200814 | 37 | 24 | 1.6 | 4.8 | 0.00 | 0.00 | 0.00 | 39 | 1015.0 |
| 20260905200316 | 37 | 89 | 1.6 | 4.8 | 0.00 | 0.00 | 0.00 | 40 | 1015.0 |
| 20260905195811 | 37 | 19 | 1.6 | 8.0 | 0.00 | 0.00 | 0.00 | 41 | 1015.0 |
| 20260905195328 | 37 | 330 | 3.2 | 8.0 | 0.00 | 0.00 | 0.00 | 40 | 1015.0 |
| 20260905194823 | 37 | 360 | 3.2 | 6.4 | 0.00 | 0.00 | 0.00 | 44 | 1015.1 |
| 20260905194319 | 37 | 360 | 1.6 | 12.9 | 0.00 | 0.00 | 0.00 | 41 | 1015.2 |
| 20260905193815 | 37 | 360 | 4.8 | 12.9 | 0.00 | 0.00 | 0.00 | 44 | 1015.2 |
| 20260905193312 | 37 | 9 | 4.8 | 9.7 | 0.00 | 0.00 | 0.00 | 41 | 1015.3 |
| 20260905192811 | 37 | 24 | 3.2 | 6.4 | 0.00 | 0.00 | 0.00 | 43 | 1015.4 |
| 20260905192327 | 37 | 22 | 1.6 | 4.8 | 0.00 | 0.00 | 0.00 | 41 | 1015.4 |
| 20260905191822 | 36 | 12 | 1.6 | 3.2 | 0.00 | 0.00 | 0.00 | 42 | 1015.4 |
| 20260905191318 | 36 | 288 | 1.6 | 6.4 | 0.00 | 0.00 | 0.00 | 41 | 1015.5 |
| 20260905190814 | 36 | 120 | 3.2 | 9.7 | 0.00 | 0.00 | 0.00 | 45 | 1015.6 |
| 20260905190331 | 36 | 150 | 3.2 | 9.7 | 0.00 | 0.00 | 0.00 | 43 | 1015.8 |
| 20260905185826 | 36 | 70 | 3.2 | 6.4 | 0.00 | 0.00 | 0.00 | 44 | 1015.8 |
| 20260905185323 | 36 | 24 | 0.0 | 3.2 | 0.00 | 0.00 | 0.00 | 42 | 1016.0 |
| 20260905184823 | 36 | 115 | 1.6 | 6.4 | 0.00 | 0.00 | 0.00 | 42 | 1016.1 |
| 20260905184318 | 36 | 32 | 1.6 | 9.7 | 0.00 | 0.00 | 0.00 | 46 | 1016.1 |
| 20260905183813 | 36 | 29 | 3.2 | 9.7 | 0.00 | 0.00 | 0.00 | 44 | 1016.2 |
| 20260905183310 | 36 | 24 | 1.6 | 8.0 | 0.00 | 0.00 | 0.00 | 44 | 1016.2 |
| 20260905182827 | 35 | 355 | 1.6 | 4.8 | 0.00 | 0.00 | 0.00 | 45 | 1016.2 |
| 20260905182324 | 36 | 324 | 1.6 | 6.4 | 0.00 | 0.00 | 0.00 | 45 | 1016.3 |
| 20260905181840 | 35 | 128 | 1.6 | 6.4 | 0.00 | 0.00 | 0.00 | 46 | 1016.3 |
| 20260905181314 | 36 | 23 | 3.2 | 6.4 | 0.00 | 0.00 | 0.00 | 46 | 1016.4 |
| 20260905180814 | 36 | 296 | 3.2 | 12.9 | 0.00 | 0.00 | 0.00 | 47 | 1016.4 |
| 20260905180310 | 36 | 341 | 6.4 | 9.7 | 0.00 | 0.00 | 0.00 | 46 | 1016.6 |
| 20260905175826 | 35 | 29 | 6.4 | 9.7 | 0.00 | 0.00 | 0.00 | 44 | 1016.6 |
| 20260905175321 | 35 | 345 | 1.6 | 9.7 | 0.00 | 0.00 | 0.00 | 44 | 1016.7 |
| 20260905174838 | 36 | 27 | 4.8 | 12.9 | 0.00 | 0.00 | 0.00 | 45 | 1016.7 |
| 20260905174313 | 36 | 10 | 3.2 | 12.9 | 0.00 | 0.00 | 0.00 | 45 | 1016.9 |
| 20260905173829 | 36 | 339 | 3.2 | 9.7 | 0.00 | 0.00 | 0.00 | 45 | 1016.9 |
| 20260905173345 | 36 | 344 | 1.6 | 4.8 | 0.00 | 0.00 | 0.00 | 45 | 1016.9 |
| 20260905172820 | 36 | 355 | 1.6 | 4.8 | 0.00 | 0.00 | 0.00 | 47 | 1017.0 |
| 20260905172321 | 36 | 26 | 1.6 | 6.4 | 0.00 | 0.00 | 0.00 | 44 | 1017.0 |